Regional Weather Roundup
Issued by NWS

Home | Current Version | Previous Version | Graphics & Text | Print | Product List | Glossary On
Versions: 1 2 3 4 5 6 7 8 9 10 11 12 13 14 15 16 17 18 19 20 21 22 23 24 25 26 27 28 29 30 31 32 33 34 35 36 37 38 39 40 41 42 43 44 45 46 47 48 49 50
000
ASUS45 KTFX 020510
RWRMT
MONTANA REGIONAL WEATHER ROUNDUP
NATIONAL WEATHER SERVICE GREAT FALLS MT
1100 PM MDT MON JUN 01 2015

NOTE: "FAIR" INDICATES FEW OR NO CLOUDS BELOW 12000 FEET WITH NO
SIGNIFICANT WEATHER AND/OR OBSTRUCTIONS TO VISIBILITY.

MTZ001>007-043-020600-
WEST OF THE DIVIDE

CITY           SKY/WX    TMP DP  RH WIND       PRES   REMARKS
KALISPELL      LGT RAIN  58  56  93 NW3       29.87F
MISSOULA       CLOUDY    57  54  89 NW8       29.88R
BUTTE          MOCLDY    48  46  93 S6        29.96F
MULLAN PASS    RAIN      45  44  97 SW6       29.99R
DEER LODGE       N/A     54  46  76 SW3       29.94F
EUREKA           N/A     61  54  77 S9        29.88S
HAMILTON         N/A     54  48  82 SE2       29.88R
LIBBY            N/A     57  55  94 CALM      29.90F
PLAINS           N/A     60  56  87 S1        29.90S
RONAN            N/A     58  54  86 MISG      29.95R
THOMPSON FALLS   N/A     58  57  96 W3        29.94S
$$

MTZ008-052>055-020600-
SOUTHWEST MONTANA

CITY           SKY/WX    TMP DP  RH WIND       PRES   REMARKS
BOZEMAN        CLOUDY    52  48  86 S6        29.92S
DILLON         PTCLDY    51  46  83 SE5       29.95R
W YELLOWSTONE  MOCLDY    41  41 100 CALM      30.06F
THREE FORKS      N/A     55  15  20 CALM      29.92S
TWIN BRIDGES     N/A     50  43  77 NE5       29.94S
$$

MTZ009-010-012-014-046-048-049-054-020600-
EAST SLOPES AND CENTRAL MONTANA

CITY           SKY/WX    TMP DP  RH WIND       PRES   REMARKS
CUT BANK       CLOUDY    57  53  86 N8        29.87S
GREAT FALLS    CLOUDY    56  51  84 CALM      29.88R
MALMSTROM AFB  CLOUDY    56  53  91 N2        29.89R
HELENA         CLOUDY    58  52  80 CALM      29.88F
CONRAD           N/A     59  59 100 S6        29.92R
$$

MTZ011-013-016-021-045-047-050-051-020600-
NORTH CENTRAL MONTANA

CITY           SKY/WX    TMP DP  RH WIND       PRES   REMARKS
HAVRE          CLOUDY    65  51  60 S6        29.87R
LEWISTOWN      CLOUDY    57  52  83 E12       29.91F
N BAR RANCH    DRIZZLE   54  50  87 NE16G28   29.93F
CHINOOK          N/A     68  37  32 E7        29.86S
FORT BENTON      N/A     61  54  77 CALM      29.88R
$$

MTZ017>020-022>027-061-062-020600-
NORTHEAST MONTANA

CITY           SKY/WX    TMP DP  RH WIND       PRES   REMARKS
GLASGOW        MOCLDY    68  40  35 NE23G29   29.81S
JORDAN           N/A     71  50  47 NE15      29.79R
SIDNEY         MOCLDY    72  54  53 N15       29.78R
WOLF POINT     CLOUDY    71  47  42 NE16G24   29.81R
MALTA            N/A     68  38  33 N9        29.82F
PLENTYWOOD       N/A     64  46  52 NE17      29.84F
POPLAR           N/A     70  46  43 N17       29.81S
$$

MTZ028>42-056>058-020600-
SOUTHCENTRAL AND SOUTHEAST MONTANA

CITY           SKY/WX    TMP DP  RH WIND       PRES   REMARKS
BAKER          CLOUDY    67  60  78 CALM      29.76F
BILLINGS       LGT RAIN  57  54  89 N18       29.88F
LIVINGSTON     MOCLDY    58  47  66 SW14      29.92S
MILES CITY     TSTM      64  59  83 SW25G38   29.75R
BIG TIMBER       N/A     55  52  88 W7        29.93R
FORSYTH          N/A     64  59  82 W14G23    29.79R
LAUREL           N/A     57  48  72 S1        29.91F
ROUNDUP          N/A     59  50  72 NW21      29.83R
$$

REGIONAL REPORTS...DAKOTAS

CITY           SKY/WX    TMP DP  RH WIND       PRES   REMARKS
WILLISTON      MOCLDY    67  56  67 NE13      29.81S
MINOT          CLOUDY    63  58  83 NW6       29.79F
DICKINSON      MOCLDY    67  60  78 SE9       29.74F
BEACH          FAIR      63  57  82 CALM      29.77R
CROSBY         FAIR      63  59  88 N8        29.86S
WATFORD CITY   FAIR      63  57  82 NE10      29.78R
BISMARCK       MOCLDY    71  61  70 E7        29.79R
GRAND FORKS    CLOUDY    65  47  52 S20G29    29.86F
FARGO          MOCLDY    67  45  45 SE18G31   29.90F
BUFFALO SD       N/A     70  60  70 SE5       29.71S
RAPID CITY     CLOUDY    66  53  63 SE5       29.86R
$$

REGIONAL REPORTS...WYOMING/IDAHO/WASHINGTON

CITY           SKY/WX    TMP DP  RH WIND       PRES   REMARKS
GILLETTE       MOCLDY    61  49  64 SW6       29.85S
SHERIDAN       CLOUDY    63  52  67 NW25G39   29.88R
BUFFALO WY     CLOUDY    62  46  55 SE9       29.91R
CODY           CLOUDY    57  43  58 SW10      29.92F
YELLOWSTONE LA   N/A     39  37  92 CALM      30.11F
IDAHO FALLS    PTCLDY    48  45  89 N8        29.95S
SALMON           N/A     54  46  76 CALM      29.89S
BOISE          PTCLDY    68  45  43 CALM      29.83R
SPOKANE        RAIN      63  52  67 SE14      29.85R
$$

REGIONAL REPORTS...ALBERTA

CITY           SKY/WX    TMP DP  RH WIND       PRES   REMARKS
EDMONTON       CLEAR     46  37  71 NE3       30.02R
CALGARY        CLOUDY    57  48  72 E10       29.95R
LETHBRIDGE     CLOUDY    64  41  42 E10       29.87R
MEDICINE HAT   CLEAR     66  37  34 E13       29.88S
$$

REGIONAL REPORTS...SASKATCHEWAN

CITY           SKY/WX    TMP DP  RH WIND       PRES   REMARKS
SWIFT CURRENT  CLEAR     55  43  62 E10       29.94R
REGINA         MOCLDY    61  46  59 N12       29.92R
SASKATOON      PTCLDY    50  45  81 N7        29.97R
$$



USA.gov is the U.S. government's official web portal to all federal, state and local government web resources and services.